Valentine, NE

1:53 AM CST on December 13, 2019 (GMT -0600)
Miller Field

Weather History for KVTN - October, 2019

Change the Weather History Date:

Monday, October 28, 2019

  Actual Average Record
Temperature  
Mean Temperature 26 °F 44 °F  
Max Temperature 37 °F 58 °F 85 °F (2001)
Min Temperature 15 °F 29 °F -6 °F (1925)
Degree Days  
Heating Degree Days 38 21  
Month to date heating degree days 578 451  
Since 1 July heating degree days 631 636  
Cooling Degree Days 0 0  
Month to date cooling degree days 0 1  
Year to date cooling degree days 930 818  
Moisture  
Dew Point 11 °F    
Average Humidity 56    
Maximum Humidity 77    
Minimum Humidity 29    
Precipitation  
Precipitation 0.00 in 0.04 in 0.87 in (1991)
Month to date precipitation 1.17 1.17  
Year to date precipitation 28.07 18.92  
Snow  
Snow 0.00 in 0.10 in 3.60 in (1905)
Month to date snowfall 1.9 1.2  
Since 1 July snowfall 1.9 1.9  
Since 1 September snowfall 1.9 1.9  
Snow Depth 0.00 in    
Sea Level Pressure  
Sea Level Pressure 30.18 in    
Wind  
Wind Speed 6 mph ()    
Max Wind Speed 13 mph    
Max Gust Speed 17 mph    
Visibility 10.0 miles    
Events      
T = Trace of Precipitation, MM = Missing Value Source: Averaged Metar Reports

Daily Weather History Graph

Daily Weather History Graph

Search for Another Location

Airport or City:

Astronomy

Oct. 28, 2019 Rise Set
Actual Time 8:11 AM CDT 6:40 PM CDT
Civil Twilight 7:41 AM CDT 7:09 PM CDT
Nautical Twilight 7:08 AM CDT 7:42 PM CDT
Astronomical Twilight 6:35 AM CDT 8:15 PM CDT
Moon 8:34 AM CDT (10/28) 7:26 PM CDT (10/28)
Length of Visible Light 11h 27m
Length of Day
10h 28m
New Moon, 0% of the Moon is Illuminated
Oct 28
New Moon
Nov 4
First Quarter
Nov 12
Full
Nov 19
Last Quarter
Nov 26
New

Hourly Weather History & Observations

Time (CDT) Temp. Windchill Dew Point Humidity Pressure Visibility Wind Dir Wind Speed Gust Speed Precip Events Conditions
12:52 AM 24.1 °F 15.2 °F 12.0 °F 60% 30.31 in 10.0 mi NW 8.1 mph - N/A   Overcast
1:52 AM 25.0 °F 17.1 °F 12.0 °F 58% 30.29 in 10.0 mi NW 6.9 mph - N/A   Overcast
2:52 AM 25.0 °F 18.1 °F 10.0 °F 53% 30.28 in 10.0 mi WNW 5.8 mph - N/A   Overcast
3:52 AM 19.0 °F 12.3 °F 10.0 °F 68% 30.26 in 10.0 mi West 4.6 mph - N/A   Mostly Cloudy
4:52 AM 21.9 °F 12.5 °F 12.0 °F 66% 30.24 in 10.0 mi WSW 8.1 mph - N/A   Overcast
5:52 AM 19.9 °F 11.1 °F 12.0 °F 71% 30.23 in 10.0 mi SW 6.9 mph - N/A   Clear
6:52 AM 19.0 °F 8.2 °F 12.0 °F 74% 30.22 in 10.0 mi SW 9.2 mph - N/A   Clear
7:52 AM 17.1 °F 7.6 °F 10.0 °F 74% 30.22 in 10.0 mi WSW 6.9 mph - N/A   Clear
8:52 AM 19.9 °F 11.1 °F 12.9 °F 74% 30.20 in 10.0 mi SW 6.9 mph - N/A   Clear
9:52 AM 23.0 °F 13.9 °F 12.0 °F 63% 30.22 in 10.0 mi WSW 8.1 mph - N/A   Clear
10:52 AM 25.0 °F 16.3 °F 12.0 °F 58% 30.21 in 10.0 mi WSW 8.1 mph - N/A   Clear
11:52 AM 28.0 °F 20.0 °F 12.0 °F 51% 30.18 in 10.0 mi West 8.1 mph - N/A   Clear
12:52 PM 30.9 °F 21.7 °F 9.0 °F 40% 30.17 in 10.0 mi WSW 11.5 mph - N/A   Clear
1:52 PM 35.1 °F 29.3 °F 9.0 °F 34% 30.12 in 10.0 mi West 6.9 mph - N/A   Clear
2:52 PM 36.0 °F 31.1 °F 8.1 °F 31% 30.08 in 10.0 mi WSW 5.8 mph - N/A   Clear
3:52 PM 37.0 °F 29.8 °F 8.1 °F 30% 30.08 in 10.0 mi NW 10.4 mph - N/A   Clear
4:52 PM 37.0 °F 32.4 °F 8.1 °F 30% 30.08 in 10.0 mi West 5.8 mph - N/A   Clear
5:52 PM 36.0 °F 29.6 °F 10.0 °F 34% 30.09 in 10.0 mi WNW 8.1 mph - N/A   Clear
6:52 PM 30.9 °F 26.2 °F 12.0 °F 46% 30.11 in 10.0 mi NW 4.6 mph - N/A   Clear
7:52 PM 27.0 °F 21.6 °F 10.9 °F 51% 30.13 in 10.0 mi NW 4.6 mph - N/A   Clear
8:52 PM 23.0 °F 17.0 °F 10.9 °F 60% 30.15 in 10.0 mi WNW 4.6 mph - N/A   Clear
9:52 PM 19.0 °F 13.9 °F 10.9 °F 71% 30.17 in 10.0 mi West 3.5 mph - N/A   Clear
10:52 PM 21.0 °F 14.6 °F 12.9 °F 71% 30.18 in 10.0 mi WSW 4.6 mph - N/A   Partly Cloudy
11:52 PM 21.9 °F 17.2 °F 15.1 °F 75% 30.18 in 10.0 mi WSW 3.5 mph - N/A   Mostly Cloudy